Wind_Speed
20 16 12 9 8 7 6 5 4 3 3 3 3 4 6 8 10 11 12 13 14 15 16 17 17 18 18 20 20 21 22 22 22 23 25 26 27 27 28 28 27 26 25 24 24 26 29 33 35 35 34 32 30 27 25 23 21 20 19 18 19 20 21 21 21 20 20 20 20
20 15 11 9 9 8 7 7 6 6 6 7 8 8 9 11 13 15 16 17 17 18 19 20 20 21 22 22 22 22 23 22 22 23 24 25 26 26 27 28 28 28 26 25 24 24 26 29 32 33 31 29 27 25 23 21 19 18 18 20 21 22 22 21 21 21 21 21 20
20 17 14 13 12 12 11 11 10 10 11 12 12 12 13 15 16 18 19 20 20 21 22 23 24 25 26 26 26 25 25 24 24 24 24 25 26 28 29 30 31 31 29 27 24 23 23 26 28 29 28 26 24 22 21 19 19 19 21 22 23 23 22 22 21 21 21 21 20
22 19 17 16 15 15 15 14 14 14 14 15 16 16 17 18 20 20 20 21 21 23 25 26 27 28 29 30 30 29 28 28 27 28 28 28 29 31 33 34 34 34 31 27 23 21 21 23 25 26 25 24 23 22 22 21 21 22 23 23 23 23 22 22 22 22 21 21 20
22 21 18 17 16 16 17 17 16 16 17 18 19 20 21 21 22 21 21 22 23 24 26 27 29 30 31 32 32 32 31 31 32 32 31 31 32 32 33 34 35 34 31 27 23 21 20 21 23 24 24 24 24 24 23 23 23 23 23 23 23 22 23 23 22 22 21 20 19
23 22 20 18 18 18 18 18 18 18 19 20 22 23 23 23 23 23 23 23 24 25 27 29 30 31 32 32 33 33 34 34 35 35 34 34 33 32 32 32 32 32 30 27 25 23 22 21 21 21 22 22 22 21 20 20 19 20 20 21 22 22 22 22 22 21 20 20 19
23 24 23 20 18 18 18 18 19 20 21 23 24 24 24 23 23 23 24 24 25 26 28 30 32 33 33 33 34 35 36 36 36 36 36 34 33 31 30 29 29 28 27 26 25 24 22 21 19 18 17 17 17 18 17 17 17 18 19 20 20 21 21 21 21 20 20 19 18
23 24 23 20 18 18 19 20 21 23 24 25 25 25 24 23 23 24 25 26 27 28 30 32 33 34 36 36 37 38 38 37 37 36 34 32 31 29 27 26 24 23 23 22 22 21 21 20 19 17 15 15 15 16 16 17 18 18 18 19 20 20 21 21 20 19 19 18 17
23 23 23 21 20 20 20 22 23 24 25 26 26 25 24 23 24 26 27 28 29 31 32 33 35 37 38 39 39 40 39 38 37 34 32 30 28 26 24 23 21 20 19 18 19 20 21 22 21 20 18 18 18 18 18 18 19 19 19 20 20 20 20 19 19 18 18 17 16
24 24 24 23 22 22 22 23 24 25 26 26 26 25 25 25 27 28 29 30 31 33 34 35 37 38 39 40 40 40 40 39 36 33 30 27 26 25 24 23 22 22 22 22 22 23 24 25 24 22 21 20 20 21 20 20 20 20 21 21 22 21 20 19 18 18 17 16 16
25 25 25 25 24 23 24 25 25 25 26 26 26 26 27 28 29 30 31 31 32 34 35 38 39 40 40 40 40 40 40 39 37 34 30 28 27 26 26 26 26 26 27 28 28 28 28 27 25 24 23 22 21 22 22 22 22 23 24 24 24 23 22 20 19 18 17 16 16
26 25 26 26 25 25 25 25 25 25 25 26 26 26 27 29 30 31 31 32 34 35 36 38 39 40 39 38 38 39 39 39 38 35 33 31 30 30 29 29 29 29 30 30 30 29 28 26 25 25 24 24 23 24 24 25 25 27 28 27 26 24 23 21 20 18 17 17 16
26 25 26 27 26 25 25 25 25 24 24 25 25 26 27 29 31 32 32 33 34 35 35 37 38 38 36 35 36 37 38 38 37 36 35 34 33 32 31 30 30 30 30 30 30 29 27 26 26 26 26 26 26 27 27 28 29 30 30 29 27 25 23 22 20 19 18 18 17
26 25 26 26 26 26 25 26 25 24 24 25 25 26 27 29 31 32 33 33 34 34 35 36 36 35 35 36 37 38 37 36 35 35 34 34 34 32 31 31 30 30 30 30 29 29 28 28 28 28 28 29 29 30 31 32 32 32 31 29 27 25 24 22 21 20 19 19 18
26 25 25 25 25 25 25 25 25 25 25 25 26 27 28 29 31 32 33 33 33 34 34 34 33 33 34 37 38 38 36 34 33 33 33 34 33 33 32 32 31 31 30 30 30 30 29 29 29 30 30 31 32 33 33 33 32 31 29 28 26 25 24 23 22 21 20 19 19
25 24 24 25 25 25 24 24 24 24 25 25 26 27 28 29 31 32 32 33 33 33 34 33 32 32 33 36 38 37 35 33 33 33 33 33 33 33 33 33 33 32 32 32 31 31 30 30 31 31 32 34 35 35 33 32 30 29 28 26 25 24 23 23 22 21 20 19 19
25 24 24 25 26 26 25 25 24 24 24 26 27 28 29 30 31 32 32 33 32 33 33 33 32 31 32 34 35 35 34 33 33 33 33 33 33 33 33 34 34 34 34 33 32 31 30 31 31 32 34 35 36 35 33 31 29 28 26 25 24 24 23 22 21 20 19 18 17
24 24 24 24 26 27 26 26 25 24 25 26 28 29 29 30 31 32 33 33 33 33 34 34 33 32 32 32 32 32 33 33 33 33 33 33 33 33 34 34 35 35 34 33 32 32 31 31 32 34 35 36 35 34 32 30 28 27 25 24 24 23 22 21 20 19 18 17 16
24 24 24 24 25 27 27 27 26 25 25 26 28 29 30 31 32 32 32 33 33 34 35 35 34 33 33 33 32 31 31 32 33 33 33 33 33 33 33 34 34 34 33 32 32 32 32 33 35 36 36 35 33 32 30 28 27 26 25 24 23 22 21 21 19 18 17 16 15
25 25 25 24 25 26 28 28 26 25 25 26 28 30 31 32 32 33 33 33 34 35 36 37 36 35 35 34 33 32 30 31 32 33 33 33 33 33 33 34 34 33 32 32 32 33 34 35 36 36 34 33 32 30 29 27 26 25 25 24 23 22 21 20 19 17 16 15 13
25 25 25 25 25 25 27 28 27 25 25 26 28 30 32 33 34 34 34 34 34 35 36 37 37 37 36 36 35 32 30 29 31 33 34 34 34 34 34 34 34 33 32 32 33 34 35 36 36 34 33 32 31 29 28 27 26 26 25 24 23 22 21 20 18 17 15 14 12
25 24 25 25 25 25 26 28 29 27 26 26 28 31 33 34 35 36 35 35 35 35 36 38 37 38 38 38 36 33 30 28 30 33 34 34 34 35 35 35 35 34 33 33 34 35 36 36 34 33 32 31 30 29 28 27 27 26 26 25 24 23 21 20 18 16 15 13 11
25 25 25 25 25 25 25 28 30 30 29 28 28 30 32 34 35 36 36 35 35 35 36 38 37 38 39 39 37 34 31 29 31 33 35 35 34 35 35 35 35 35 35 35 36 36 36 35 33 32 31 30 29 28 28 28 27 27 27 26 25 23 22 20 18 16 14 12 11
26 25 25 24 25 24 24 26 29 31 32 30 29 30 31 32 33 34 35 34 34 35 36 37 37 38 39 39 37 34 32 31 32 33 34 34 34 34 35 35 35 35 36 37 38 38 37 35 33 31 30 29 28 28 28 28 27 28 28 27 26 24 22 20 17 15 14 13 12
26 26 25 25 25 25 24 25 28 31 32 32 30 30 31 31 32 33 33 33 34 35 35 35 35 36 36 36 35 34 34 34 35 35 34 34 34 35 35 35 35 35 36 38 39 38 38 37 35 33 30 29 28 28 27 27 27 28 28 28 26 25 22 20 17 15 14 13 13
27 26 26 25 25 25 24 24 27 31 33 33 32 31 31 31 31 32 33 33 33 34 34 33 33 33 33 33 33 34 34 35 36 37 36 35 35 35 35 34 34 35 36 38 39 39 38 37 37 35 32 30 29 28 27 27 27 28 28 27 26 24 22 20 18 16 15 14 14
27 26 25 25 24 24 24 24 26 31 34 34 33 32 32 31 31 32 32 32 32 33 33 31 31 32 31 30 32 33 34 35 36 37 38 38 37 37 36 35 34 35 37 39 39 39 38 37 37 35 34 31 30 29 29 29 28 28 27 26 24 23 22 21 19 18 18 17 17
26 25 24 24 24 24 24 23 25 30 34 36 35 34 33 32 31 32 32 31 31 31 31 30 31 30 29 28 31 33 35 35 36 37 38 39 39 39 38 36 34 35 38 39 39 39 38 37 36 35 34 33 32 31 31 31 30 28 26 25 23 22 21 20 20 20 20 20 19
26 25 24 23 23 23 23 23 24 29 34 36 36 34 33 32 32 32 32 31 31 31 30 30 30 30 28 28 30 33 35 36 35 36 37 39 39 39 38 36 34 35 38 39 39 38 37 36 35 35 34 34 33 32 31 30 29 28 26 24 23 22 21 21 21 21 21 21 20
25 24 23 22 22 22 23 22 23 27 32 35 35 34 33 33 32 32 32 32 31 32 32 32 31 30 29 29 30 32 34 35 35 35 36 37 38 37 36 35 33 34 37 39 39 38 36 35 35 34 34 34 33 32 31 30 28 27 26 25 23 22 22 21 22 22 22 22 21
25 24 22 21 21 21 22 22 22 25 30 33 34 33 33 33 32 32 32 32 33 33 34 34 33 32 31 31 31 32 34 35 35 35 36 37 38 37 36 34 33 34 37 39 39 37 36 35 35 34 34 33 32 31 30 29 28 27 26 25 24 23 22 22 22 22 22 22 22
26 24 22 21 20 21 21 21 20 23 29 33 33 33 33 33 32 32 32 33 33 34 34 34 34 33 32 31 31 32 34 35 34 34 35 37 37 37 35 33 33 35 37 39 38 37 36 35 34 34 33 32 32 31 30 29 28 27 26 25 24 23 22 22 22 22 22 22 21
26 24 22 21 20 20 20 20 19 22 29 32 33 33 33 33 32 32 32 32 33 34 34 35 34 34 33 31 31 32 33 34 34 34 35 36 37 37 35 33 32 35 38 39 38 37 35 35 34 33 32 31 31 31 30 29 28 27 26 24 23 22 22 22 22 22 22 21 20
26 24 22 20 19 19 19 19 18 22 29 32 33 33 33 33 32 32 31 32 33 35 36 36 36 36 36 34 33 33 33 33 33 33 34 35 36 36 34 32 30 34 38 39 38 36 35 35 34 33 32 32 31 31 30 29 28 27 26 24 23 22 21 21 21 21 21 21 20
26 24 22 21 19 18 18 18 18 21 29 32 33 34 33 33 33 33 33 33 33 34 34 35 35 36 36 35 35 34 34 33 33 33 34 35 35 35 33 31 30 34 38 38 37 36 35 35 34 34 33 33 32 31 30 29 28 27 26 25 24 23 22 22 21 21 20 19 19
26 25 23 22 21 19 18 17 16 19 27 33 35 34 33 33 33 33 34 34 33 32 31 31 31 32 33 33 33 34 34 35 34 34 34 34 34 33 31 30 31 34 37 38 37 36 36 35 35 35 34 34 33 31 30 29 28 27 26 25 24 23 23 22 21 20 19 18 18
26 25 24 22 20 19 17 16 15 17 26 32 35 34 33 32 31 32 33 33 33 32 31 29 29 30 31 31 31 32 33 35 36 35 35 34 34 32 31 30 32 34 37 38 37 37 36 36 36 36 36 35 33 32 30 29 28 27 27 26 25 24 23 22 21 20 19 18 17
27 25 23 21 19 18 17 15 14 17 24 30 33 34 33 31 30 30 32 32 32 32 31 31 31 31 32 32 30 30 31 34 36 36 35 34 33 32 31 32 33 35 37 38 37 37 37 36 36 37 37 35 34 33 31 29 29 28 27 27 26 24 23 22 21 19 18 17 16
27 25 23 21 19 17 16 15 14 17 22 27 30 32 32 30 30 30 31 32 33 34 33 33 32 32 33 32 29 28 30 32 35 36 35 33 32 32 33 33 34 35 36 37 37 37 37 37 37 37 37 36 35 33 31 30 29 28 27 27 26 24 23 21 20 19 18 16 15
27 26 24 22 19 17 16 15 15 17 21 25 28 30 30 30 30 31 30 31 33 34 34 34 34 34 33 32 30 28 29 31 33 35 34 33 32 33 34 34 34 35 36 37 37 37 37 37 37 37 37 35 34 32 31 30 29 27 26 26 25 24 23 21 20 19 18 16 14
27 25 24 22 20 17 16 16 17 18 21 24 27 28 30 31 31 30 29 29 31 32 33 33 34 34 33 32 30 30 30 31 32 33 33 33 32 32 33 35 36 36 36 36 36 37 37 37 37 36 35 34 33 31 30 30 28 27 26 25 25 24 23 22 20 19 18 17 15
Wind_Direction
287 282 275 266 253 238 227 220 219 213 204 193 176 160 152 148 144 144 148 151 150 150 152 156 162 167 171 173 174 174 173 173 172 173 174 174 173 170 168 167 166 165 163 161 161 162 163 164 163 161 159 159 158 158 159 161 163 167 171 174 175 175 173 169 166 165 166 166 165
279 273 264 254 244 235 225 213 214 218 224 228 230 210 182 170 160 155 156 158 161 163 164 164 168 170 170 170 171 170 168 166 166 168 170 171 170 167 165 163 161 158 155 151 149 148 149 150 150 148 147 147 148 148 149 153 159 163 168 170 170 168 165 162 160 161 163 163 162
271 264 258 252 242 237 232 220 218 221 223 219 216 202 185 175 169 166 165 168 172 174 172 170 171 172 171 169 168 166 163 160 159 158 158 157 158 158 158 156 155 153 150 147 143 140 138 138 137 136 135 137 140 142 146 152 159 163 166 166 165 162 159 157 157 159 160 159 158
267 256 248 242 236 233 231 227 222 215 210 205 199 194 188 180 174 172 172 175 178 177 173 170 168 168 168 166 164 162 160 159 156 152 150 149 148 147 148 149 149 149 148 146 142 138 134 131 128 128 129 132 136 141 145 151 157 161 162 161 159 158 156 156 157 158 158 157 157
267 254 243 238 234 233 233 231 223 213 203 195 186 181 178 176 174 174 175 175 173 172 170 167 163 161 160 159 158 157 158 157 154 152 151 148 146 145 145 147 148 150 149 145 139 132 127 123 121 123 126 130 134 137 142 147 152 154 156 156 156 156 156 156 157 158 158 157 157
272 259 248 240 236 234 230 226 218 208 197 187 178 173 171 171 171 171 169 168 168 167 165 161 158 155 153 152 151 150 150 149 149 149 148 146 146 146 146 147 149 149 146 140 133 127 121 117 116 119 124 129 132 136 141 146 148 150 152 153 155 157 157 157 158 158 158 157 156
275 265 256 245 238 231 223 215 206 198 189 182 177 174 172 172 171 170 168 166 164 162 159 157 154 151 149 147 146 145 145 145 146 146 146 145 145 146 146 146 145 141 136 132 129 126 123 119 118 120 125 131 135 138 143 147 151 154 156 156 157 159 159 158 159 159 159 158 156
278 266 257 246 238 228 216 205 196 189 185 182 181 180 178 177 175 172 168 164 162 160 158 156 154 151 149 146 145 144 144 144 143 143 142 142 141 141 141 140 137 135 133 133 134 133 133 132 132 136 141 146 149 151 153 155 159 162 163 162 162 162 162 160 160 160 160 160 158
283 268 256 246 239 228 214 202 195 190 187 185 186 187 185 182 178 173 167 163 162 161 158 156 155 153 150 148 147 146 145 143 142 140 139 139 140 140 141 142 142 144 146 150 152 152 151 150 152 156 161 164 163 162 162 163 165 168 169 169 167 165 164 163 162 162 162 162 161
289 273 259 246 235 225 215 204 199 196 193 191 192 191 187 183 179 174 169 165 163 161 159 158 156 154 152 151 149 148 147 146 144 143 143 144 147 150 153 156 159 161 164 168 169 167 164 163 165 169 171 172 168 166 166 168 170 173 175 174 171 167 165 164 164 164 164 164 163
295 279 262 248 234 223 214 206 203 200 197 194 193 189 185 181 178 174 171 167 163 162 161 160 159 157 156 154 153 152 151 150 149 149 152 155 160 163 166 169 171 171 171 171 170 169 168 169 172 173 174 173 170 168 169 171 174 176 177 175 172 168 165 164 165 165 164 164 164
298 284 266 251 234 221 213 207 204 202 199 195 191 186 182 179 177 175 171 167 165 164 164 163 162 161 160 158 158 157 156 155 156 158 162 165 168 170 171 173 174 173 172 170 169 169 170 173 175 175 174 173 172 171 172 173 175 176 176 173 171 168 165 165 165 165 164 164 164
299 287 270 253 234 220 212 208 205 203 201 196 190 185 181 180 177 175 172 169 167 166 166 166 165 165 163 162 161 160 161 162 164 166 168 169 170 170 171 172 173 172 171 170 169 171 174 177 179 178 176 174 174 173 173 174 175 175 173 170 168 167 166 165 165 165 164 165 164
298 288 273 255 234 219 212 208 205 204 201 196 190 185 182 180 178 175 173 171 169 168 167 168 168 168 167 165 164 165 166 169 170 170 169 169 169 169 170 170 171 170 170 171 172 175 178 180 181 180 178 175 174 174 174 174 175 174 172 169 167 166 166 165 165 164 164 164 164
297 289 275 258 238 222 212 208 206 205 202 197 191 186 182 180 178 176 174 173 171 169 169 170 171 171 169 168 168 170 172 173 173 171 169 168 168 168 168 169 170 170 172 173 176 179 182 182 182 180 178 175 174 173 173 174 174 173 172 170 168 167 165 165 164 164 164 164 163
296 290 277 261 245 230 217 209 207 206 202 196 191 187 183 181 179 178 176 174 172 171 171 172 172 172 171 171 172 174 175 175 174 172 170 169 168 168 169 169 170 172 174 177 180 182 184 184 182 180 177 175 174 173 173 174 174 173 172 170 168 167 165 164 163 164 164 164 163
294 290 280 264 249 237 225 214 210 206 201 196 191 187 184 182 180 179 178 176 173 172 172 172 173 172 172 173 175 176 176 176 175 174 172 171 170 170 170 171 173 175 177 179 181 182 183 183 182 179 177 175 174 174 173 174 173 172 171 169 167 165 163 162 162 162 162 163 163
291 289 282 268 253 241 230 219 214 209 203 197 192 188 185 183 181 181 180 178 176 174 172 172 172 173 174 175 176 177 177 177 176 176 175 173 173 173 173 174 176 178 179 180 180 180 180 180 179 178 176 175 175 174 174 173 172 171 169 167 165 163 161 160 160 160 160 161 161
287 287 284 273 258 245 235 226 219 212 205 199 193 189 186 184 183 182 182 181 179 176 174 172 173 174 175 176 177 178 178 179 178 177 177 176 175 176 176 177 178 179 179 179 179 179 179 178 177 176 176 175 174 174 173 172 170 169 167 165 163 161 160 159 158 158 158 158 158
284 284 283 278 265 250 239 231 223 215 208 202 196 191 187 185 184 183 183 183 181 179 176 174 174 175 177 178 178 179 179 180 180 178 178 178 178 178 178 178 179 178 178 178 178 178 178 177 176 176 175 174 173 172 170 169 168 167 165 164 162 160 159 157 157 156 156 156 156
282 282 282 280 271 256 243 234 227 220 213 206 200 194 189 186 185 185 185 184 183 180 178 177 176 177 178 179 179 179 179 180 180 179 179 179 180 180 180 180 179 178 177 177 178 178 177 177 176 175 174 173 171 170 169 167 167 166 164 163 161 159 158 157 156 156 155 155 154
281 280 281 280 275 263 248 238 233 228 222 212 204 198 193 189 187 186 186 185 183 182 181 180 179 179 180 180 180 179 179 179 179 179 180 181 181 181 181 180 179 177 177 177 178 178 177 176 175 174 173 171 170 169 167 166 165 164 164 162 160 159 157 157 156 155 154 153 151
282 280 280 280 279 269 255 241 235 233 230 223 212 202 195 191 188 187 186 185 183 183 182 183 183 182 182 182 181 179 178 177 177 179 180 181 180 180 180 179 178 177 177 178 179 178 176 174 173 172 171 170 168 167 166 164 163 163 162 161 159 158 157 156 155 154 152 150 147
283 281 280 280 280 274 261 245 236 233 231 228 218 206 197 192 189 186 185 184 183 183 183 183 184 184 183 182 181 180 177 175 175 176 178 178 178 178 177 177 177 177 178 180 180 178 176 173 171 170 169 168 166 165 164 163 162 162 161 160 159 157 155 154 153 151 148 145 142
284 282 280 279 279 276 267 250 236 230 229 226 219 209 199 194 190 187 185 184 184 184 183 183 184 183 183 182 181 180 178 175 174 173 174 175 176 176 176 176 177 178 180 181 180 179 177 175 172 170 168 166 165 164 163 162 162 162 161 160 158 156 153 151 149 147 144 141 138
287 284 280 278 278 277 270 254 236 228 224 222 217 209 200 194 190 188 186 185 184 183 183 182 182 181 181 181 180 179 177 175 174 173 172 172 173 174 174 174 176 178 180 181 180 179 178 177 175 172 168 165 163 162 161 161 162 163 162 161 158 155 151 148 145 142 140 138 136
288 285 282 279 278 278 272 259 238 225 219 216 212 206 198 194 190 188 187 185 184 182 182 181 180 179 179 180 179 178 176 174 173 173 172 172 172 172 173 174 176 179 181 181 180 179 178 177 176 173 169 165 163 162 161 161 162 163 162 160 158 155 151 147 143 141 139 137 135
288 286 283 281 280 279 275 264 242 224 215 211 208 203 197 193 190 188 187 185 182 180 179 179 178 177 177 179 179 177 175 173 172 172 172 172 172 172 173 174 176 179 181 181 180 179 178 177 176 174 171 167 165 164 163 163 162 162 161 159 157 154 151 147 145 142 140 138 136
289 288 287 285 282 281 279 268 245 224 212 206 203 198 194 191 189 187 185 183 180 178 177 177 177 176 177 179 180 178 175 173 172 171 171 171 171 172 172 173 175 178 181 181 180 179 178 177 176 174 172 170 166 164 164 162 161 161 160 158 157 154 152 149 147 145 143 141 140
289 290 289 287 285 283 281 272 249 225 210 201 196 193 190 189 187 185 183 181 179 178 178 176 175 175 177 180 179 177 174 172 171 171 170 170 170 170 171 172 174 177 180 180 179 178 177 176 175 175 174 172 168 165 163 162 161 160 159 157 156 155 153 150 149 148 147 146 145
291 291 290 288 286 284 282 275 253 225 206 196 191 189 187 186 184 183 182 180 180 180 179 177 175 175 176 178 179 177 174 172 171 170 170 169 169 169 170 171 173 176 178 179 178 178 177 176 176 176 175 173 168 165 162 161 161 160 158 157 156 155 153 152 151 150 150 150 149
293 292 291 289 287 286 284 279 256 224 203 193 189 187 185 184 183 183 182 181 180 179 178 176 175 174 175 176 178 176 174 171 170 171 170 169 168 168 168 169 172 175 177 178 177 176 176 176 177 177 176 173 169 165 162 161 160 159 158 157 156 155 153 152 152 152 153 153 152
295 294 292 290 288 286 286 281 258 223 201 191 187 186 185 183 182 182 181 180 179 178 178 177 175 173 173 174 176 176 173 171 170 170 170 168 167 167 167 167 170 174 176 176 175 175 176 176 177 176 175 173 169 165 162 161 159 158 156 155 154 154 153 152 153 154 155 155 155
296 294 293 291 289 288 288 284 259 222 200 190 187 186 185 183 181 180 179 179 179 179 179 178 176 174 173 174 176 175 173 170 169 169 168 167 166 165 165 166 168 172 174 174 174 174 175 176 176 175 174 171 167 164 162 160 158 156 154 153 152 151 151 152 153 155 156 157 157
299 296 293 291 290 290 290 286 262 223 199 189 187 187 185 183 180 178 178 178 178 178 178 178 176 174 173 173 175 174 171 169 168 168 167 166 165 163 163 164 166 170 172 172 172 173 174 175 175 174 172 169 165 162 160 158 156 153 152 150 150 150 150 151 152 154 156 158 159
303 299 294 292 290 289 289 286 264 224 199 189 186 185 184 182 179 178 178 177 175 174 174 175 173 171 170 171 174 173 170 167 166 166 166 164 163 162 160 161 163 167 169 170 171 172 173 174 173 171 169 166 162 160 158 155 153 151 150 148 148 149 150 151 152 154 156 158 159
305 302 297 293 289 286 285 282 262 223 199 189 185 182 180 179 176 175 174 172 170 169 169 169 169 168 168 169 172 173 170 166 164 163 163 162 161 160 158 157 160 163 167 169 170 171 172 171 170 169 168 163 160 157 155 152 150 149 148 147 148 149 150 151 152 153 155 158 160
306 304 300 293 286 281 278 275 256 223 200 189 184 181 178 174 172 172 172 169 167 166 166 166 166 167 167 167 170 170 168 165 161 160 160 160 160 158 156 155 157 161 165 168 170 170 170 169 168 168 167 162 159 156 153 150 148 147 147 147 148 149 150 151 152 154 156 159 161
304 303 300 293 283 275 269 264 247 222 202 189 183 179 175 171 170 172 172 170 168 166 165 165 165 165 164 164 165 166 165 161 159 158 158 158 159 158 156 155 156 160 164 168 169 169 168 168 168 169 167 163 159 156 153 150 148 147 147 147 148 149 150 151 152 154 156 159 162
301 299 297 292 282 270 260 252 239 221 203 190 182 177 173 171 171 171 171 170 169 167 166 164 163 162 161 160 160 161 161 159 157 157 157 156 157 158 157 156 156 159 163 167 168 168 167 168 168 168 167 164 160 157 154 150 148 146 146 147 148 149 150 151 153 153 155 158 163
298 296 293 289 280 267 253 243 232 218 204 193 185 179 175 173 171 169 168 169 168 167 165 163 160 159 158 157 157 158 157 156 155 155 155 156 156 157 157 156 156 158 161 165 167 167 168 168 169 169 168 165 161 158 155 151 148 147 147 148 149 149 150 151 153 154 155 157 161
Height
728 726 726 725 724 722 721 721 721 721 721 721 722 722 722 722 723 723 724 725 725 726 726 727 728 729 731 732 733 734 736 736 737 738 739 739 740 740 740 742 746 752 757 760 761 761 760 758 758 759 761 763 766 768 771 774 776 778 780 782 784 785 786 787 787 789 790 792 793
727 726 725 724 723 722 721 720 720 720 720 720 721 722 722 722 723 723 723 724 725 725 725 726 726 728 729 731 733 734 736 737 738 739 740 741 741 741 741 744 747 752 757 761 763 763 762 760 758 758 760 762 765 768 771 773 776 778 781 782 784 785 786 786 787 789 790 792 793
727 726 724 723 722 721 721 720 719 719 718 718 719 720 721 721 721 721 722 722 723 723 723 724 725 725 726 728 730 733 735 737 738 740 741 741 741 742 743 745 748 752 757 762 765 766 764 761 759 758 759 761 764 768 771 774 777 779 781 783 784 784 784 785 787 789 791 792 794
727 725 723 722 721 720 720 719 718 717 717 716 716 717 719 719 719 720 720 721 722 722 722 722 723 723 724 725 726 729 732 734 737 739 741 742 742 743 744 745 748 752 756 761 765 766 765 762 760 759 760 762 766 769 772 775 777 779 781 782 782 783 784 785 787 789 791 792 793
727 725 723 721 720 719 719 718 717 717 716 716 716 716 716 717 717 718 719 720 721 721 722 722 722 723 723 723 725 726 729 732 734 737 740 742 743 745 746 746 748 751 755 760 763 765 765 764 762 761 762 764 767 770 773 775 777 779 780 781 782 783 784 786 787 789 791 792 793
727 725 722 721 719 718 717 717 716 716 716 716 716 716 716 716 716 717 718 719 720 721 722 722 722 723 723 724 725 726 728 731 733 736 739 741 744 746 747 748 749 751 755 758 761 764 765 766 765 765 766 767 769 771 774 776 778 780 781 782 782 783 785 786 787 789 790 791 792
727 725 722 720 718 717 716 716 715 715 714 715 715 715 715 715 716 716 717 718 719 721 722 722 722 722 723 724 725 726 729 731 734 736 738 741 744 746 748 750 751 753 756 757 760 762 765 766 767 768 768 769 771 772 775 777 779 781 782 783 784 784 785 786 787 788 790 791 791
726 725 722 720 718 716 715 715 714 714 713 713 713 714 714 715 715 716 716 717 718 720 721 721 722 722 722 723 724 726 728 731 734 736 738 741 744 746 749 751 753 754 756 758 760 762 764 766 767 768 769 770 771 772 775 777 780 782 783 784 784 785 786 786 787 788 789 790 791
726 724 722 719 717 716 715 714 713 712 712 711 711 712 713 714 714 715 715 716 717 718 720 721 721 721 721 722 723 725 727 729 732 735 738 740 743 746 748 750 752 754 756 758 760 761 763 765 766 767 768 769 770 771 774 776 779 781 783 784 785 785 786 786 787 788 789 790 790
724 723 721 719 716 715 714 713 712 711 711 710 710 711 711 712 713 713 714 715 716 717 718 719 720 720 721 722 723 723 724 726 729 733 736 739 742 745 747 749 750 752 754 756 758 760 761 763 765 766 767 768 769 771 773 775 778 780 782 783 784 785 785 786 787 788 789 789 790
722 721 720 718 715 714 713 712 711 711 710 710 709 710 710 710 711 711 712 713 715 716 717 718 718 719 720 721 722 722 723 724 726 730 734 737 740 743 745 747 749 750 752 754 756 757 759 761 763 765 766 767 769 770 772 774 777 779 781 782 783 784 785 786 786 787 788 789 789
720 719 718 716 714 712 711 711 710 710 710 709 708 708 709 709 709 710 711 712 713 714 716 716 717 718 719 720 721 722 722 723 725 727 731 734 738 741 743 745 747 749 751 752 754 756 758 760 762 763 765 766 768 770 771 773 776 778 780 781 782 782 783 784 785 786 787 788 789
718 717 716 714 712 710 709 709 708 709 708 708 707 707 708 708 708 709 710 711 711 712 714 715 716 717 718 719 720 721 723 724 724 726 728 731 735 738 741 744 746 748 750 752 753 755 757 759 761 762 764 766 767 769 771 772 774 776 778 779 780 781 781 783 784 785 786 787 789
716 715 714 712 710 708 707 706 706 707 707 707 706 706 706 707 707 708 709 710 710 711 712 714 715 716 717 718 720 721 723 724 725 726 728 730 733 737 740 743 746 748 750 751 753 755 756 758 760 761 763 765 766 768 770 771 773 774 776 777 778 779 780 781 783 784 786 787 788
713 713 712 711 709 707 705 705 704 705 705 705 705 705 705 706 706 707 708 709 709 710 711 712 714 715 717 718 719 721 723 725 726 727 728 731 733 736 739 742 745 747 749 751 753 754 756 757 759 761 762 764 766 767 769 770 772 773 774 775 776 777 779 781 782 784 785 786 788
711 711 710 709 707 706 704 703 703 702 702 703 703 703 704 704 705 706 707 708 708 709 710 711 712 714 716 718 719 721 722 725 726 727 729 731 733 736 738 741 743 746 748 750 752 753 755 756 758 760 761 763 765 766 768 770 771 772 773 774 776 777 778 780 781 783 785 786 787
709 708 708 707 706 704 702 701 701 701 701 701 701 702 702 703 704 705 706 707 707 707 708 709 711 713 715 717 719 721 722 724 726 727 729 731 733 735 737 740 742 744 746 748 750 752 754 756 758 760 761 763 765 766 767 769 770 771 773 774 775 777 778 780 781 783 784 786 787
707 706 706 705 703 702 701 700 699 699 699 699 699 699 700 701 702 703 704 705 705 705 706 707 710 712 714 716 718 720 721 723 725 726 728 730 732 734 736 739 741 742 745 746 749 751 753 756 758 760 762 763 765 766 767 768 770 771 772 774 775 776 778 780 781 782 784 785 787
705 704 704 702 701 700 699 698 697 697 697 697 697 697 698 699 700 701 702 703 703 703 704 706 708 710 712 714 716 718 720 721 723 725 727 729 731 734 736 738 740 742 744 746 748 750 753 755 757 759 761 763 764 766 767 768 769 771 772 773 775 776 778 780 781 782 784 785 786
703 702 701 700 699 698 697 696 696 695 695 696 696 696 696 697 699 700 701 701 701 702 703 704 706 708 710 712 714 716 719 721 722 724 726 729 731 733 735 737 739 741 743 746 748 750 752 754 756 759 761 762 764 765 766 768 769 771 772 773 775 776 778 779 781 782 784 785 786
700 699 699 698 697 696 695 694 694 694 694 694 694 694 694 695 696 697 699 699 700 701 702 703 704 705 707 710 712 715 717 720 721 723 726 728 730 732 734 736 738 741 743 746 747 750 751 754 756 758 760 761 763 764 766 767 769 770 772 773 775 776 778 779 781 782 783 784 786
698 697 696 695 694 693 692 692 692 692 692 692 692 692 692 692 693 695 696 697 699 700 701 701 702 704 705 707 710 712 716 718 721 722 725 727 729 731 733 736 738 740 742 745 747 749 751 753 755 757 759 761 762 764 765 766 768 770 771 773 775 776 778 779 780 781 783 784 785
696 694 693 692 691 690 689 689 689 690 690 691 691 691 691 691 691 692 694 696 697 698 699 700 701 702 703 705 707 711 713 716 719 721 724 726 729 731 733 735 737 740 742 744 746 748 750 752 755 757 758 760 762 763 765 766 768 769 771 773 774 776 777 779 780 781 782 783 784
693 692 691 689 688 686 686 686 686 687 688 689 690 690 690 690 691 691 692 693 695 696 697 698 700 702 703 704 706 709 711 714 717 720 723 726 728 731 733 735 737 739 741 743 745 747 749 751 753 756 758 759 761 763 764 766 767 769 770 772 774 775 777 778 779 781 781 783 783
691 689 688 686 685 684 683 682 682 683 685 686 688 689 689 689 690 690 691 691 693 694 696 697 699 701 702 704 706 707 710 712 715 718 721 725 727 730 732 734 737 739 741 742 744 746 747 749 751 754 756 758 760 762 764 766 767 768 770 771 773 774 776 777 778 780 781 782 783
689 687 685 684 682 681 680 679 679 680 681 683 685 686 687 688 688 689 690 691 692 693 695 696 697 699 701 703 705 706 709 711 713 716 719 723 726 729 731 734 736 738 740 742 743 745 747 748 750 752 754 756 759 761 763 765 767 768 770 771 772 773 775 776 777 779 780 781 782
686 685 683 681 679 678 676 675 675 676 678 680 682 683 685 686 687 688 689 690 691 692 694 695 696 698 700 702 704 706 708 710 712 715 717 720 724 727 730 732 735 737 739 741 743 745 746 748 749 751 752 755 757 759 761 764 766 768 769 771 772 773 774 775 776 778 779 781 782
684 682 681 679 677 675 673 672 672 672 674 676 678 680 682 684 685 686 687 689 690 691 693 695 696 697 699 702 703 705 706 708 711 714 716 719 721 725 728 731 734 736 738 740 742 744 746 747 749 750 752 753 756 757 760 762 764 766 768 770 771 772 773 775 776 777 779 780 782
682 680 678 676 674 672 671 669 668 668 670 672 674 677 679 681 682 684 686 687 689 690 691 693 694 696 699 701 702 704 705 707 710 712 715 718 721 724 726 730 733 735 737 739 741 743 745 747 748 750 751 752 754 756 759 761 763 766 767 769 771 772 773 774 776 777 778 780 782
679 678 676 674 672 670 668 667 666 666 666 669 671 674 676 678 680 682 683 685 686 688 689 691 693 695 697 699 701 703 704 706 709 711 714 716 720 723 726 729 732 734 736 739 741 743 745 746 747 749 750 752 753 756 758 761 762 765 766 768 770 771 773 774 775 776 778 780 781
676 675 674 672 671 668 666 665 664 664 664 666 668 671 673 675 677 679 681 682 684 686 687 689 690 692 695 698 700 701 703 705 708 710 713 715 718 721 725 728 731 733 736 738 740 742 744 745 747 748 750 751 753 755 757 760 762 764 766 767 769 771 772 774 775 776 777 779 780
674 673 672 670 669 667 665 663 662 662 663 664 666 668 670 672 674 676 678 680 682 684 686 687 689 691 693 697 699 701 702 704 706 709 712 714 717 720 724 727 730 732 734 737 739 741 742 744 746 747 749 751 753 755 757 760 762 764 766 767 769 770 771 773 775 776 777 778 780
672 670 669 668 666 665 663 662 661 661 661 662 664 666 668 670 672 674 676 678 680 682 684 686 687 689 691 695 698 700 701 703 706 708 711 714 716 720 723 726 729 731 733 736 738 740 741 743 745 747 749 751 753 755 757 760 761 764 766 767 769 770 771 772 774 775 776 778 779
669 668 667 666 665 663 662 661 660 659 659 660 662 664 666 668 670 672 675 676 678 680 681 683 685 686 689 693 696 699 701 703 706 708 711 714 716 719 722 726 728 730 732 734 736 738 740 742 744 746 749 751 753 756 758 760 761 763 765 767 768 770 771 772 774 775 776 777 779
668 666 665 664 663 662 661 660 659 658 658 658 660 662 664 666 668 670 672 674 676 678 681 682 684 686 688 691 695 697 700 702 705 708 711 713 716 719 721 725 727 729 731 733 735 737 739 741 743 746 748 751 753 756 758 760 761 763 765 766 768 769 771 772 773 775 776 777 778
666 665 663 662 661 660 660 659 658 657 656 656 657 660 662 664 666 667 670 672 675 677 680 683 685 686 689 692 695 697 699 701 704 707 710 713 716 718 721 724 726 729 731 733 734 736 738 740 742 745 747 750 753 755 757 759 761 763 764 766 767 769 770 771 773 774 775 776 778
665 663 661 660 659 659 658 658 657 656 656 655 656 658 660 662 665 667 669 671 674 676 679 682 684 686 689 692 695 697 698 700 702 706 709 712 715 717 720 723 726 729 731 732 733 735 737 739 742 744 747 750 752 755 757 759 761 762 764 765 767 768 770 771 772 774 775 776 778
663 662 660 659 658 657 657 657 657 656 655 655 656 657 659 661 664 666 668 670 672 674 677 680 683 685 688 691 694 697 699 700 701 704 708 711 714 716 719 722 726 728 730 731 733 734 736 739 741 743 746 748 751 753 756 758 760 761 763 765 767 768 770 771 772 774 775 776 777
662 660 659 658 657 656 656 656 656 656 655 655 656 657 659 661 663 665 667 669 670 672 675 678 681 684 687 690 694 697 700 701 701 703 706 710 714 716 719 721 725 728 730 731 732 734 736 738 741 743 745 747 750 752 754 756 758 760 762 764 766 768 769 771 772 774 775 776 778
660 659 657 656 656 655 655 655 655 655 656 656 656 657 658 659 662 664 667 669 670 672 674 677 681 684 687 690 694 697 700 701 702 704 706 710 714 716 719 721 724 727 729 731 732 734 736 738 740 742 745 747 749 751 753 755 757 759 761 763 765 767 769 771 772 774 775 777 778
658 657 655 654 654 653 653 653 654 654 655 656 656 656 657 659 661 664 666 669 671 673 676 678 681 684 687 691 693 697 700 701 703 705 707 711 714 717 720 721 724 726 729 731 732 734 736 738 740 742 744 746 748 750 752 754 756 758 761 762 764 766 768 770 772 774 775 777 778